STARLINK-31975, 59886

Orbit data source: Space-Track

STARLINK-31975, 59886 is a payload satellite owned by SpaceX/Seattle (US) in LEO that was launched on Tue, 28 May 2024 UTC via an FALCON 9 launch vehicle from the Air Force Eastern Test Range (AFETR). Payload-class satellites include a variety of spacecraft equipped with specific instruments for various scientific and technological missions. These include communications satellites like Starlink; space stations such as the ISS; scientific satellites like the Hubble; Earth observation satellites from companies like Planet Labs, Umbra, and HawkEye 360; GPS; miniature CubeSats for education and research; and military/defense satellites.

Loading next visibility...
Identifier
59886, 2024-100B
Orbit
LEO
Country
Flag of USUS
Related business
Manufacturer
SpaceX/Seattle
Mission
Operational Commercial Communications
Bus & Motor
STARLINK V2M, Unknown motor
Mass
730 kg wet, ~700 kg dry
Launch date (UTC)
2024-05-28 (2 years ago)
Launch vehicle
FALCON 9
Launch site
Air Force Eastern Test Range (AFETR)
Object type
Payload
Rocket body
Debris
Shape & HBR
Box + 2 Pan, 17.7 m
Radar Cross Section
33.884 m², Large (>1 m²)

Expand to show TLE details & history
Last TLE update: 2 days ago

TLE from 2 days ago
0 STARLINK-31975
1 59886U 24100B   26171.32764551  .00000341  00000-0  21909-4 0  9996
2 59886  43.0027 265.7890 0001439 266.3877  93.6810 15.27576001116859
Epoch: 2026-06-20T07:51Z
TLE epoch observation values (Epoch: 2026-06-20T07:51:48.572Z)
Latitude
-0.00001°
Longitude
-120.70725°
Altitude
482.9 km
Speed
7.626 km/s
True Right ascension
17h 43m 09s
True Declination
0° 00' 00"
Sunlit
Object was in full shadow at epoch
Visualization orbit readout
Latitude
Unknown
Longitude
Unknown
Altitude
Unknown
Speed
Unknown
Apparent Right ascension
Unknown
Apparent Declination
Unknown
Sunlit
N/A
Visualization observer readout
Local Sidereal Time
21:49:45
Azimuth
Unknown
Elevation
Unknown
Doppler factor
Unknown
Orbital elements
Apogee altitude
485.993 km
Perigee altitude
484.018 km
Semi-major axis
6,863.143 km
Eccentricity
0.00014
Inclination
43.0027°
RAAN
265.789°
Arg. of periapsis
266.3877°
True anomaly
93.69746°
Mean anomaly
93.681°
Eccentric anomaly
93.68923°
Mean motion
3.81732 °/min
Orbital period
94.31 mins
BSTAR
0.000021909
Loading maneuver chart data...
Computing Atmospheric mass density...
Loading historical data...
Loading historical data...
Loading historical data...
Loading historical data...
Loading historical data...
Loading historical data...
Loading historical data...

Documentation

Showing up to 5 results
|